This is the latest recevied weather packets stored in our database for station/object N5ATR. If no packets are shown the sender has not sent any weather packets the latest 10 day(s).
| Time | Temp. | Humidity | Pressure | Rain* | Wind** | Luminosity | Snow |
|---|---|---|---|---|---|---|---|
| 1788474041 | 26.67° C | 33% | 1020.8 hPa | 0 mm | - | 161 W/m² | - |
| 1788473737 | 27.22° C | 33% | 1020.7 hPa | 0 mm | - | 150 W/m² | - |
| 1788473434 | 27.22° C | 32% | 1020.9 hPa | 0 mm | - | 202 W/m² | - |
| 1788473134 | 27.22° C | 33% | 1020.9 hPa | 0 mm | - | 257 W/m² | - |
| 1788472834 | 26.67° C | 33% | 1020.9 hPa | 0 mm | - | 168 W/m² | - |
| 1788472533 | 27.78° C | 33% | 1020.9 hPa | 0 mm | - | 245 W/m² | - |
| 1788472232 | 28.89° C | 31% | 1020.9 hPa | 0 mm | - | 327 W/m² | - |
| 1788471932 | 28.33° C | 31% | 1021 hPa | 0 mm | - | 242 W/m² | - |
| 1788471627 | 27.22° C | 32% | 1020.9 hPa | 0 mm | - | 689 W/m² | - |
| 1788471323 | 26.67° C | 34% | 1021 hPa | 0 mm | - | 194 W/m² | - |
| 1788471018 | 26.67° C | 34% | 1021.3 hPa | 0 mm | - | 172 W/m² | - |
| 1788470715 | 26.67° C | 34% | 1021.3 hPa | 0 mm | - | 178 W/m² | - |
| 1788470415 | 27.22° C | 33% | 1021.7 hPa | 0 mm | - | 215 W/m² | - |
| 1788470110 | 27.78° C | 33% | 1021.5 hPa | 0 mm | - | 253 W/m² | - |
| 1788469807 | 26.67° C | 33% | 1021.3 hPa | 0 mm | - | 225 W/m² | - |
| 1788469501 | 26.67° C | 33% | 1021.5 hPa | 0 mm | - | 376 W/m² | - |
| 1788469196 | 26.67° C | 34% | 1021.4 hPa | 0 mm | - | 188 W/m² | - |
| 1788468895 | 26.11° C | 34% | 1021.5 hPa | 0 mm | - | 196 W/m² | - |
| 1788468590 | 26.67° C | 34% | 1021.5 hPa | 0 mm | - | 185 W/m² | - |
| 1788468286 | 26.67° C | 33% | 1021.8 hPa | 0 mm | - | 181 W/m² | - |
| 1788467982 | 26.67° C | 33% | 1021.7 hPa | 0 mm | - | 200 W/m² | - |
| 1788467677 | 27.22° C | 33% | 1021.5 hPa | 0 mm | - | 191 W/m² | - |
| 1788467376 | 27.22° C | 33% | 1021.8 hPa | 0 mm | - | 222 W/m² | - |
| 1788467074 | 27.22° C | 33% | 1021.7 hPa | 0 mm | - | 204 W/m² | - |
| 1788466773 | 27.22° C | 33% | 1021.9 hPa | 0 mm | - | 326 W/m² | - |
* Rain latest hour (hover to see other rain measurements)
** Current wind speed in m/s (hover to see current wind gust speed)